| time (UTC) | temp F | wind direction | speed MPH | gust MPH | rain 1hr in | rain 24hr in | rain mn in | humidity % | barometer mb |
| 20260505180048 | 51 | 357 | 1.0 | 4.0 | 0.00 | 0.00 | 0.04 | 96 | 1008.7 |
| 20260505175041 | 51 | 7 | 1.0 | 4.0 | 0.00 | 0.00 | 0.04 | 96 | 1008.8 |
| 20260505174030 | 51 | 4 | 3.0 | 7.0 | 0.00 | 0.00 | 0.04 | 96 | 1008.8 |
| 20260505173020 | 51 | 359 | 2.0 | 3.0 | 0.00 | 0.00 | 0.04 | 96 | 1008.8 |
| 20260505172007 | 51 | 347 | 2.0 | 7.0 | 0.00 | 0.00 | 0.04 | 96 | 1008.8 |
| 20260505170055 | 52 | 3 | 2.0 | 4.0 | 0.00 | 0.00 | 0.04 | 96 | 1008.9 |
| 20260505165048 | 52 | 12 | 2.0 | 4.0 | 0.00 | 0.00 | 0.04 | 96 | 1009.0 |
| 20260505164040 | 52 | 16 | 1.0 | 3.0 | 0.00 | 0.00 | 0.04 | 96 | 1009.0 |
| 20260505163032 | 52 | 19 | 2.0 | 4.0 | 0.00 | 0.00 | 0.04 | 95 | 1009.0 |
| 20260505162025 | 52 | 11 | 1.0 | 6.0 | 0.00 | 0.00 | 0.04 | 95 | 1008.9 |
| 20260505161007 | 52 | 10 | 3.0 | 4.0 | 0.00 | 0.00 | 0.04 | 95 | 1009.0 |
| 20260505153037 | 52 | 20 | 4.0 | 6.0 | 0.07 | 0.00 | 0.03 | 92 | 1009.1 |
| 20260505152030 | 52 | 10 | 3.0 | 6.0 | 0.05 | 0.00 | 0.02 | 91 | 1009.2 |
| 20260505151022 | 52 | 14 | 3.0 | 8.0 | 0.00 | 0.00 | 0.01 | 91 | 1009.2 |
| 20260505125029 | 52 | 23 | 4.0 | 8.0 | 0.00 | 0.00 | 0.01 | 89 | 1010.0 |
| 20260505124011 | 52 | 352 | 6.0 | 9.0 | 0.00 | 0.00 | 0.01 | 89 | 1010.0 |
| 20260505123004 | 52 | 3 | 3.0 | 6.0 | 0.00 | 0.00 | 0.01 | 90 | 1010.1 |
| 20260505122057 | 52 | 32 | 3.0 | 8.0 | 0.00 | 0.00 | 0.01 | 90 | 1010.2 |
| 20260505121050 | 52 | 356 | 2.0 | 7.0 | 0.00 | 0.00 | 0.01 | 91 | 1010.2 |
| 20260505120043 | 52 | 24 | 4.0 | 4.0 | 0.00 | 0.00 | 0.01 | 91 | 1010.1 |
| 20260505115036 | 52 | 12 | 2.0 | 9.0 | 0.00 | 0.00 | 0.01 | 91 | 1010.1 |
| 20260505114029 | 52 | 18 | 7.0 | 9.0 | 0.00 | 0.00 | 0.01 | 91 | 1010.2 |
| 20260505113014 | 51 | 13 | 4.0 | 10.0 | 0.00 | 0.00 | 0.01 | 91 | 1010.3 |
| 20260505112006 | 51 | 19 | 6.0 | 7.0 | 0.00 | 0.00 | 0.01 | 91 | 1010.3 |
| 20260505111059 | 51 | 354 | 4.0 | 8.0 | 0.00 | 0.00 | 0.01 | 91 | 1010.3 |
| 20260505102015 | 52 | 21 | 2.0 | 7.0 | 0.00 | 0.00 | 0.01 | 95 | 1010.4 |
| 20260505101100 | 52 | 7 | 3.0 | 6.0 | 0.00 | 0.00 | 0.01 | 95 | 1010.4 |
| 20260505100053 | 51 | 7 | 4.0 | 7.0 | 0.00 | 0.00 | 0.01 | 95 | 1010.4 |
| 20260505095034 | 51 | 7 | 4.0 | 6.0 | 0.00 | 0.00 | 0.01 | 95 | 1010.4 |
| 20260505094027 | 51 | 35 | 2.0 | 7.0 | 0.00 | 0.00 | 0.01 | 95 | 1010.4 |
| 20260505093012 | 51 | 20 | 2.0 | 10.0 | 0.00 | 0.00 | 0.01 | 95 | 1010.5 |
| 20260505092005 | 51 | 23 | 6.0 | 7.0 | 0.00 | 0.00 | 0.01 | 95 | 1010.6 |
| 20260505091058 | 51 | 14 | 2.0 | 8.0 | 0.00 | 0.00 | 0.01 | 95 | 1010.5 |
| 20260505090049 | 51 | 12 | 1.0 | 6.0 | 0.00 | 0.00 | 0.01 | 95 | 1010.5 |
| 20260505085042 | 51 | 358 | 3.0 | 8.0 | 0.00 | 0.00 | 0.01 | 95 | 1010.5 |
| 20260505084035 | 51 | 349 | 7.0 | 8.0 | 0.00 | 0.00 | 0.01 | 95 | 1010.6 |
| 20260505083028 | 51 | 356 | 4.0 | 8.0 | 0.00 | 0.00 | 0.01 | 95 | 1010.5 |
| 20260505082010 | 51 | 3 | 3.0 | 7.0 | 0.00 | 0.00 | 0.01 | 96 | 1010.5 |
| 20260505081003 | 51 | 359 | 4.0 | 8.0 | 0.00 | 0.00 | 0.01 | 95 | 1010.5 |
| 20260505080056 | 51 | 358 | 4.0 | 7.0 | 0.00 | 0.00 | 0.01 | 96 | 1010.4 |
| 20260505075049 | 51 | 353 | 4.0 | 7.0 | 0.00 | 0.00 | 0.01 | 96 | 1010.4 |
| 20260505074042 | 51 | 354 | 2.0 | 8.0 | 0.00 | 0.00 | 0.01 | 96 | 1010.5 |
| 20260505073035 | 51 | 353 | 2.0 | 9.0 | 0.00 | 0.00 | 0.01 | 96 | 1010.5 |
| 20260505072028 | 51 | 344 | 2.0 | 7.0 | 0.00 | 0.00 | 0.01 | 96 | 1010.5 |
| 20260505071012 | 51 | 345 | 3.0 | 6.0 | 0.00 | 0.00 | 0.01 | 96 | 1010.4 |
| 20260505070005 | 51 | 349 | 4.0 | 6.0 | 0.00 | 0.00 | 0.01 | 96 | 1010.4 |
| 20260505065056 | 51 | 1 | 4.0 | 6.0 | 0.00 | 0.00 | 0.01 | 96 | 1010.4 |
| 20260505064049 | 51 | 8 | 3.0 | 8.0 | 0.00 | 0.00 | 0.01 | 96 | 1010.4 |
| 20260505063042 | 52 | 13 | 4.0 | 4.0 | 0.00 | 0.00 | 0.01 | 96 | 1010.5 |
| 20260505062034 | 51 | 8 | 3.0 | 7.0 | 0.00 | 0.00 | 0.01 | 96 | 1010.6 |
| 20260505061027 | 52 | 355 | 0.0 | 4.0 | 0.00 | 0.00 | 0.01 | 96 | 1010.6 |
| 20260505060007 | 52 | 355 | 4.0 | 8.0 | 0.00 | 0.00 | 0.01 | 96 | 1010.7 |
| 20260505054054 | 52 | 358 | 5.0 | 8.0 | 0.00 | 0.00 | 0.01 | 96 | 1010.5 |
| 20260505053048 | 52 | 357 | 3.0 | 7.0 | 0.00 | 0.00 | 0.01 | 96 | 1010.4 |
| 20260505052040 | 52 | 9 | 4.0 | 7.0 | 0.00 | 0.00 | 0.01 | 96 | 1010.4 |
| 20260505051021 | 52 | 18 | 3.0 | 6.0 | 0.00 | 0.00 | 0.01 | 96 | 1010.3 |
| 20260505041035 | 53 | 4 | 1.0 | 6.0 | 0.00 | 0.00 | 0.01 | 96 | 1010.4 |
| 20260505040027 | 53 | 14 | 2.0 | 4.0 | 0.00 | 0.00 | 0.01 | 96 | 1010.5 |
| 20260505035010 | 53 | 15 | 3.0 | 7.0 | 0.00 | 0.00 | 0.01 | 96 | 1010.5 |
| 20260505034003 | 53 | 17 | 2.0 | 6.0 | 0.00 | 0.00 | 0.01 | 96 | 1010.4 |
| 20260505033056 | 53 | 2 | 2.0 | 8.0 | 0.00 | 0.00 | 0.01 | 96 | 1010.4 |
| 20260505032049 | 54 | 11 | 2.0 | 7.0 | 0.00 | 0.00 | 0.01 | 96 | 1010.5 |
| 20260505031042 | 54 | 357 | 2.0 | 3.0 | 0.00 | 0.00 | 0.01 | 96 | 1010.4 |
| 20260505030035 | 54 | 12 | 2.0 | 8.0 | 0.00 | 0.00 | 0.01 | 96 | 1010.4 |
| 20260505025024 | 54 | 24 | 4.0 | 8.0 | 0.00 | 0.00 | 0.01 | 96 | 1010.4 |
| 20260505024009 | 54 | 14 | 3.0 | 6.0 | 0.00 | 0.00 | 0.01 | 96 | 1010.5 |
| 20260505023003 | 55 | 4 | 1.0 | 9.0 | 0.00 | 0.00 | 0.01 | 96 | 1010.6 |
| 20260505022056 | 55 | 4 | 2.0 | 6.0 | 0.00 | 0.00 | 0.01 | 96 | 1010.6 |
| 20260505021046 | 55 | 10 | 1.0 | 7.0 | 0.00 | 0.00 | 0.01 | 96 | 1010.6 |
| 20260505020026 | 55 | 360 | 0.0 | 3.0 | 0.00 | 0.00 | 0.01 | 96 | 1010.7 |
| 20260505015015 | 55 | 1 | 2.0 | 7.0 | 0.00 | 0.00 | 0.01 | 96 | 1010.6 |
| 20260505014103 | 55 | 18 | 5.0 | 6.0 | 0.00 | 0.00 | 0.01 | 96 | 1010.7 |
| 20260505013052 | 55 | 4 | 3.0 | 6.0 | 0.00 | 0.00 | 0.01 | 96 | 1010.6 |
| 20260505012028 | 56 | 7 | 4.0 | 6.0 | 0.00 | 0.00 | 0.01 | 96 | 1010.5 |
| 20260505011017 | 56 | 352 | 4.0 | 7.0 | 0.00 | 0.00 | 0.01 | 96 | 1010.6 |
| 20260505010059 | 56 | 355 | 0.0 | 4.0 | 0.00 | 0.00 | 0.01 | 96 | 1010.8 |
| 20260505005043 | 56 | 357 | 1.0 | 4.0 | 0.00 | 0.00 | 0.01 | 96 | 1010.8 |
| 20260505004015 | 56 | 1 | 1.0 | 4.0 | 0.00 | 0.00 | 0.01 | 96 | 1010.8 |
| 20260505003102 | 56 | 5 | 2.0 | 3.0 | 0.00 | 0.00 | 0.01 | 96 | 1010.8 |
| 20260505002050 | 56 | 346 | 1.0 | 3.0 | 0.00 | 0.00 | 0.01 | 96 | 1010.9 |
| 20260505001030 | 56 | 7 | 1.0 | 3.0 | 0.00 | 0.00 | 0.01 | 96 | 1011.0 |
| 20260505000012 | 56 | 5 | 0.0 | 3.0 | 0.00 | 0.00 | 0.01 | 96 | 1011.1 |
| 20260504235058 | 56 | 7 | 2.0 | 3.0 | 0.00 | 0.00 | 0.01 | 96 | 1011.2 |
| 20260504234050 | 57 | 2 | 2.0 | 2.0 | 0.00 | 0.00 | 0.01 | 96 | 1011.1 |
| 20260504233037 | 57 | 0 | 1.0 | 2.0 | 0.00 | 0.00 | 0.01 | 96 | 1011.2 |
| 20260504232029 | 57 | 339 | 0.0 | 1.0 | 0.07 | 0.00 | 0.01 | 96 | 1011.2 |
| 20260504231021 | 57 | 331 | 0.0 | 0.0 | 0.00 | 0.00 | 0.00 | 96 | 1011.2 |
| 20260504230008 | 57 | 331 | 0.0 | 0.0 | 0.00 | 0.00 | 0.00 | 96 | 1011.4 |
| 20260504225101 | 57 | 331 | 0.0 | 0.0 | 0.00 | 0.00 | 0.00 | 96 | 1011.4 |
| 20260504224054 | 57 | 331 | 0.0 | 0.0 | 0.00 | 0.00 | 0.00 | 96 | 1011.5 |
| 20260504223047 | 57 | 331 | 0.0 | 0.0 | 0.00 | 0.00 | 0.00 | 96 | 1011.5 |
| 20260504222040 | 57 | 331 | 0.0 | 0.0 | 0.00 | 0.00 | 0.00 | 96 | 1011.7 |
| 20260504221033 | 57 | 331 | 0.0 | 0.0 | 0.00 | 0.00 | 0.00 | 96 | 1011.7 |
| 20260504220022 | 57 | 331 | 0.0 | 0.0 | 0.00 | 0.00 | 0.00 | 96 | 1011.9 |
| 20260504215008 | 57 | 331 | 0.0 | 0.0 | 0.00 | 0.00 | 0.34 | 96 | 1012.0 |
| 20260504214059 | 57 | 331 | 0.0 | 0.0 | 0.00 | 0.00 | 0.34 | 96 | 1012.0 |
| 20260504213052 | 57 | 331 | 0.0 | 0.0 | 0.00 | 0.00 | 0.34 | 96 | 1012.1 |
| 20260504212046 | 57 | 331 | 0.0 | 1.0 | 0.05 | 0.00 | 0.34 | 96 | 1012.1 |
| 20260504211039 | 57 | 335 | 1.0 | 3.0 | 0.00 | 0.00 | 0.33 | 95 | 1012.1 |
| 20260504210030 | 57 | 219 | 0.0 | 0.0 | 0.00 | 0.00 | 0.33 | 95 | 1012.1 |
| 20260504205022 | 57 | 219 | 0.0 | 0.0 | 0.00 | 0.00 | 0.33 | 95 | 1012.1 |
| 20260504204007 | 57 | 219 | 0.0 | 0.0 | 0.00 | 0.00 | 0.33 | 95 | 1012.2 |
| 20260504203100 | 57 | 236 | 0.0 | 2.0 | 0.00 | 0.00 | 0.33 | 95 | 1012.1 |
| 20260504202052 | 57 | 27 | 0.0 | 0.0 | 0.00 | 0.00 | 0.33 | 95 | 1012.1 |
| 20260504201045 | 57 | 27 | 0.0 | 0.0 | 0.00 | 0.00 | 0.33 | 95 | 1012.1 |
| 20260504200038 | 57 | 27 | 0.0 | 0.0 | 0.00 | 0.00 | 0.33 | 95 | 1012.1 |
| 20260504195031 | 58 | 27 | 0.0 | 0.0 | 0.00 | 0.00 | 0.33 | 95 | 1012.0 |
| 20260504194024 | 57 | 27 | 0.0 | 1.0 | 0.07 | 0.00 | 0.33 | 95 | 1011.9 |
| 20260504193005 | 57 | 359 | 0.0 | 0.0 | 0.00 | 0.00 | 0.32 | 95 | 1012.0 |
| 20260504192059 | 57 | 359 | 0.0 | 0.0 | 0.00 | 0.00 | 0.32 | 95 | 1011.9 |
| 20260504191052 | 57 | 359 | 0.0 | 0.0 | 0.00 | 0.00 | 0.32 | 95 | 1011.8 |
| 20260504190044 | 58 | 359 | 0.0 | 0.0 | 0.00 | 0.00 | 0.32 | 95 | 1011.8 |
| 20260504185037 | 57 | 4 | 0.0 | 1.0 | 0.00 | 0.00 | 0.32 | 95 | 1011.8 |
| 20260504184030 | 58 | 242 | 0.0 | 2.0 | 0.00 | 0.00 | 0.32 | 95 | 1011.7 |
| 20260504183019 | 58 | 250 | 0.0 | 2.0 | 0.00 | 0.00 | 0.32 | 95 | 1011.8 |
| 20260504182007 | 58 | 235 | 1.0 | 3.0 | 0.00 | 0.00 | 0.32 | 95 | 1011.7 |
| 20260504181101 | 58 | 237 | 1.0 | 2.0 | 0.00 | 0.00 | 0.32 | 95 | 1011.8 |